This demonstration page uses our WeatherBlox Daily Observations layout. Learn more.

Left ArrowRight Arrow

Hourly Observations for May 10, 2020

Temp ( °F °C ) Dew Point ( °F °C ) Humidity (%) Winds ( mph kmh ) Pressure ( in mb ) Visibility ( mi km ) Precip ( " mm )
12:54 am 00:54 Cloudy 44 6.7 30 -1.1 58 58 NNW 23 37 30.28 1025 10 16.0934 0 0
1:54 am 01:54 Cloudy 42 5.6 29 -1.7 60 60 NNW 25 41 30.29 1026 10 16.0934 0 0
2:54 am 02:54 Cloudy 41 5 28 -2.2 60 60 NNW 16 26 30.29 1026 10 16.0934 0 0
3:54 am 03:54 Mostly Clear 40 4.4 28 -2.2 63 63 NNW 15 24 30.3 1026 10 16.0934 0 0
4:54 am 04:54 Clear 38 3.3 28 -2.2 68 68 NW 14 22 30.32 1027 10 16.0934 0 0
5:54 am 05:54 Clear 37 2.8 27 -2.8 67 67 NW 14 22 30.34 1027 10 16.0934 0 0
6:54 am 06:54 Sunny 38 3.3 28 -2.2 68 68 NW 15 24 30.35 1028 10 16.0934 0 0
7:54 am 07:54 Sunny 40 4.4 28 -2.2 63 63 NW 17 28 30.36 1028 10 16.0934 0 0
8:54 am 08:54 Sunny 44 6.7 28 -2.2 53 53 NNW 18 30 30.37 1028 10 16.0934 0 0
9:54 am 09:54 Sunny 48 8.9 27 -2.8 44 44 NW 20 31 30.38 1029 10 16.0934 0.001 0.001
10:54 am 10:54 Sunny 50 10 25 -3.9 38 38 NNW 20 31 30.38 1029 10 16.0934 0 0
11:54 am 11:54 Sunny 53 11.7 26 -3.3 35 35 NNW 20 31 30.39 1029 10 16.0934 0 0
12:54 pm 12:54 Sunny 53 11.7 25 -3.9 34 34 N 20 31 30.37 1029 10 16.0934 0 0
1:54 pm 13:54 Sunny 56 13.3 24 -4.4 29 29 NW 21 33 30.36 1028 10 16.0934 0 0
2:54 pm 14:54 Mostly Sunny 57 13.9 26 -3.3 30 30 N 23 37 30.34 1028 10 16.0934 0 0
3:54 pm 15:54 Cloudy 56 13.3 24 -4.4 29 29 NW 18 30 30.34 1028 10 16.0934 0 0
4:54 pm 16:54 Mostly Sunny 57 13.9 24 -4.4 28 28 NNW 20 31 30.34 1027 10 16.0934 0 0
5:54 pm 17:54 Partly Cloudy 57 13.9 24 -4.4 28 28 NNW 16 26 30.33 1027 10 16.0934 0 0
6:54 pm 18:54 Sunny 55 12.8 23 -5 29 29 NNW 16 26 30.33 1027 10 16.0934 0 0
7:54 pm 19:54 Sunny 53 11.7 23 -5 31 31 N 13 20 30.34 1027 10 16.0934 0 0
8:54 pm 20:54 Clear 50 10 22 -5.6 33 33 NNW 8 13 30.35 1028 10 16.0934 0 0
9:54 pm 21:54 Clear 47 8.3 24 -4.4 41 41 NW 6 9 30.37 1028 10 16.0934 0 0
10:54 pm 22:54 Clear 37 2.8 26 -3.3 65 65 N 6 9 30.39 1029 10 16.0934 0 0
11:54 pm 23:54 Clear 39 3.9 27 -2.8 62 62 N 6 9 30.4 1029 10 16.0934 0 0

Powered by AerisWeather